星链-30247 (STARLINK-30247 )

导读

STARLINK-30247是美国SpaceX星链互联网卫星星座中的一员,于2023年8月17日发射升空,归属SpaceX星链项目,星链旨在通过近地轨道卫星星座提供全球范围高速互联网接入服务,该卫星入轨后参与星座组网,服务地面用户的通信与互联网接入需求,目前已在轨运行约两年半。

基本信息
目录编号:
57644
目录名称:
STARLINK-30247
国际标识:
2023-122N
轨道中心:
EARTH
卫星名称:
星链-30247
卫星全名:
星链-30247 (STARLINK-30247 )
卫星状态:
在轨 (已飞行1121 天)
发射日期:
2023-08-17 UTC
国别 :
美国 (US)
星等 :
--
该卫星已列入 空间交会检测服务 Space Conjunction Data Service (SCDS) ,当前飞行风险评估等级: 高风险
轨道信息
数据来源 国际轨道数据 AOE轨道数据
星历时间 2026-09-11T08:30:27+0800
16小时前
查看轨道信息
2026-09-05T23:00:00+0800
6天前
查看轨道信息
半长轴 6861.218km 6861.19km
偏心率 0.0001025 0.0000022
轨道倾角 43.003° 43.003°
近地点辐角 271.837° 195.085°
升交点赤经 125.633° 156.107°
平近点角 88.237° 335.319°
近地点 482.377km 483.037km
远地点 483.785km 483.069km
周期 94.267分钟 94.267分钟
每日圈数 15.275694 15.275788
详细信息
固有亮度:
5
最大亮度:
0.3
卫星平台:
Starlink v2.0 mini
覆盖范围:
全球
运营商:
太空探索技术公司
运营商所在国:
美国
制造商(研发单位):
太空探索技术公司
制造商所在国:
美国
使用方式:
暂无
卫星简介
星链(Starlink)计划是由太空探索技术公司(SpaceX)提出的一个巨型低轨卫星互联网星座项目,计划在2019年至2024年间在太空搭建由约1.2万颗卫星组成的“星链”网络,其中1584颗将部署在地球上空550千米处的近地轨道,并从2020年开始工作。该卫星仍在工作。
2D轨道图
3D轨道图
轨道高度分析图
轨道倾角分析图
轨道综合分析图
查看轨道综合分析图
交会数据列表
事件ID 空间交会对象 最接近时刻(TCA) 交会距离 交会风险概率(CRP) 交会风险指数(CRI) 操作
CDM_260911-093305-764406-342521
2026-09-11T
09:33:15+0000
0.299 km
中距离
1.824671E-4 高风险 0.8
CDM_260912-232205-764406-795321
2026-09-12T
23:22:10+0000
0.542 km
远距离
1.155343E-4 高风险 0.76
CDM_260913-141605-764406-795321
2026-09-13T
14:16:38+0000
0.929 km
远距离
2.246217E-5 中风险 0.62
CDM_260911-102005-764406-342521
2026-09-11T
10:20:19+0000
0.700 km
远距离
1.873026E-5 中风险 0.6
CDM_260913-005605-764406-795321
2026-09-13T
00:56:20+0000
1.338 km
极远距离
6.386081E-6 低风险 0.51
CDM_260913-155005-764406-795321
2026-09-13T
15:50:47+0000
1.611 km
极远距离
3.514487E-6 低风险 0.46
CDM_260912-214805-764406-795321
2026-09-12T
21:48:01+0000
2.377 km
极远距离
1.327955E-6 低风险 0.37
CDM_260914-061405-303505-764421
2026-09-14T
06:14:39+0000
2.951 km
极远距离
1.16726E-6 低风险 0.36
CDM_260911-115405-764406-342521
2026-09-11T
11:54:28+0000
2.387 km
极远距离
5.284189E-7 极低风险 0.29
CDM_260911-075905-764406-342521
2026-09-11T
07:59:05+0000
2.721 km
极远距离
4.399138E-7 极低风险 0.28
与全量物体交会距离演化趋势
与全量物体交会风险概率演化趋势